1506358800.38,41839,16.31,74330.0,-2.45,-31.85,-31.91,0,*51
1506358801.64,41840,16.25,74330.5,-2.41,-31.85,-32.01,0,*51
1506358802.92,41841,16.25,74330.5,-2.41,-31.85,-31.91,0,*5A
1506358804.21,41842,16.25,74330.3,-2.41,-31.91,-31.91,0,*5C
1506358805.48,41843,16.25,74330.5,-2.43,-31.95,-31.95,0,*5F
1506358806.71,41844,16.25,74328.5,-2.43,-31.95,-32.13,0,*55
1506358807.98,41845,16.25,74330.5,-2.43,-31.73,-31.95,0,*51
1506358809.24,41846,16.25,74326.5,-2.43,-31.91,-31.95,0,*5E
1506358810.5,41847,16.25,74330.8,-2.41,-31.79,-31.91,0,*5F
1506358811.77,41848,16.25,74328.5,-2.43,-31.85,-31.91,0,*51
1506358813.03,41849,16.25,74330.8,-2.43,-31.95,-31.95,0,*55
1506358814.3,41850,16.25,74328.0,-2.43,-32.07,-31.95,0,*55
1506358815.56,41851,16.25,74326.8,-2.41,-31.79,-31.85,0,*5D
1506358816.82,41852,16.25,74328.0,-2.41,-31.79,-31.91,0,*5B
1506358818.11,41853,16.25,74328.5,-2.41,-31.91,-31.91,0,*5C
1506358819.36,41854,16.25,74332.3,-2.41,-31.61,-31.67,0,*5D
1506358820.62,41855,16.25,74332.3,-2.41,-31.67,-31.85,0,*56
1506358821.88,41856,16.31,74332.3,-2.41,-31.79,-31.85,0,*5A
1506358823.14,41857,16.31,74332.0,-2.41,-31.79,-31.85,0,*5B
1506358824.4,41858,16.25,74328.5,-2.41,-31.79,-31.85,0,*54
1506358825.68,41859,16.25,74330.5,-2.41,-31.85,-31.85,0,*56
1506358826.91,41860,16.25,74330.3,-2.41,-31.67,-31.79,0,*53
1506358828.14,41861,16.25,74332.3,-2.41,-31.67,-31.79,0,*52
1506358829.35,41862,16.25,74330.5,-2.39,-31.79,-31.79,0,*51
1506358830.64,41863,16.25,74332.0,-2.41,-31.85,-31.91,0,*5A
1506358831.93,41864,16.25,74330.8,-2.41,-31.85,-31.91,0,*5D
1506358833.18,41865,16.25,74332.3,-2.41,-31.91,-32.01,0,*53
1506358834.44,41866,16.31,74334.0,-2.41,-31.61,-31.67,0,*5C
1506358835.73,41867,16.25,74332.5,-2.41,-31.85,-31.85,0,*5B
1506358837.01,41868,16.25,74330.3,-2.41,-31.85,-31.91,0,*51
1506358838.3,41869,16.25,74332.3,-2.41,-31.85,-31.91,0,*50
1506358839.59,41870,16.25,74330.5,-2.41,-31.85,-31.85,0,*5D
1506358840.87,41871,16.25,74332.3,-2.41,-31.85,-31.91,0,*59
1506358842.14,41872,16.25,74332.3,-2.39,-31.85,-31.91,0,*55
1506358843.4,41873,16.25,74328.8,-2.41,-31.61,-31.67,0,*58
1506358844.65,41874,16.25,74330.8,-2.41,-31.67,-31.91,0,*50
1506358845.91,41875,16.25,74328.3,-2.41,-31.79,-31.91,0,*5E
1506358847.15,41876,16.25,74332.5,-2.39,-31.67,-31.91,0,*5D
1506358848.44,41877,16.25,74332.0,-2.41,-31.85,-31.91,0,*5F
1506358849.7,41878,16.25,74326.8,-2.41,-31.79,-31.85,0,*56
1506358850.98,41879,16.25,74330.8,-2.41,-31.85,-31.91,0,*51
1506358852.22,41880,16.25,74328.3,-2.39,-31.79,-31.91,0,*5B
1506358853.51,41881,16.25,74330.5,-2.41,-31.85,-31.85,0,*53
1506358854.79,41882,16.25,74328.0,-2.41,-31.85,-31.91,0,*55
1506358856.05,41883,16.25,74330.8,-2.41,-31.91,-32.01,0,*5B
1506358857.32,41884,16.25,74328.3,-2.41,-32.01,-32.07,0,*50
1506358858.61,41885,16.25,74330.5,-2.41,-32.07,-32.07,0,*57
1506358859.9,41886,16.25,74330.0,-2.41,-32.07,-32.07,0,*54
1506358861.19,41887,16.25,74332.8,-2.41,-32.07,-32.19,0,*5A
1506358862.48,41888,16.25,74330.8,-2.41,-32.07,-32.07,0,*5A
1506358863.72,41889,16.25,74330.5,-2.41,-32.01,-32.01,0,*5B
1506358864.97,41890,16.25,74328.3,-2.41,-31.91,-32.01,0,*59
1506358866.21,41891,16.25,74328.8,-2.41,-32.01,-32.01,0,*52
1506358867.47,41892,16.25,74330.3,-2.41,-31.91,-32.01,0,*5B
1506358868.73,41893,16.25,74328.0,-2.41,-31.85,-32.01,0,*5F
1506358870.01,41894,16.25,74330.8,-2.41,-31.85,-31.85,0,*57
1506358871.27,41895,16.25,74330.8,-2.41,-31.85,-32.01,0,*59
1506358872.56,41896,16.25,74330.3,-2.41,-31.91,-31.91,0,*55
1506358873.8,41897,16.25,74332.0,-2.39,-31.79,-31.91,0,*5D
1506358875.06,41898,16.25,74334.3,-2.41,-31.61,-31.67,0,*5D
1506358876.34,41899,16.25,74332.5,-2.41,-31.85,-31.85,0,*5A
1506358877.61,41900,16.25,74330.0,-2.39,-31.85,-31.91,0,*51
1506358878.87,41901,16.25,74328.3,-2.41,-31.79,-31.91,0,*5C
1506358880.16,41902,16.25,74332.8,-2.41,-31.91,-32.07,0,*55
1506358881.41,41903,16.25,74332.3,-2.41,-31.91,-32.01,0,*52
1506358882.68,41904,16.25,74334.5,-2.39,-31.85,-31.91,0,*55
1506358883.94,41905,16.25,74330.3,-2.39,-31.91,-31.91,0,*51
1506358885.18,41906,16.25,74334.8,-2.41,-31.79,-31.79,0,*5D
1506358886.41,41907,16.25,74328.5,-2.41,-31.79,-31.79,0,*5C
1506358887.67,41908,16.25,74332.8,-2.41,-31.79,-31.91,0,*55
1506358888.93,41909,16.25,74330.0,-2.41,-31.79,-31.85,0,*51
1506358890.21,41910,16.25,74328.5,-2.41,-31.91,-31.91,0,*5A
1506358891.47,41911,16.25,74328.3,-2.41,-31.91,-32.01,0,*51
1506358892.73,41912,16.25,74330.5,-2.41,-31.79,-31.91,0,*5E
1506358893.97,41913,16.25,74328.8,-2.41,-32.01,-32.01,0,*59
1506358895.24,41914,16.25,74328.5,-2.39,-31.85,-31.91,0,*54
1506358896.5,41915,16.25,74328.3,-2.39,-31.85,-31.91,0,*55
1506358897.79,41916,16.25,74328.3,-2.41,-31.85,-31.85,0,*5C
1506358899.07,41917,16.25,74332.5,-2.41,-31.85,-31.91,0,*58
1506358900.36,41918,16.25,74330.0,-2.41,-31.85,-31.91,0,*57
1506358901.6,41919,16.25,74334.3,-2.39,-31.79,-31.91,0,*5A
1506358902.87,41920,16.25,74328.3,-2.39,-31.85,-31.91,0,*53
1506358904.15,41921,16.25,74334.3,-2.41,-31.85,-31.91,0,*5D
1506358905.39,41922,16.25,74330.3,-2.39,-31.79,-31.91,0,*52
1506358906.65,41923,16.25,74328.8,-2.41,-31.79,-31.85,0,*59
1506358907.92,41924,16.25,74332.0,-2.39,-31.91,-31.91,0,*52
1506358909.17,41925,16.25,74330.3,-2.41,-31.91,-32.01,0,*56
1506358910.43,41926,16.25,74330.3,-2.41,-31.79,-31.85,0,*5C
1506358911.69,41927,16.25,74330.0,-2.41,-31.91,-32.01,0,*54
1506358912.98,41928,16.25,74332.0,-2.41,-31.85,-31.91,0,*54
1506358914.24,41929,16.25,74332.0,-2.41,-31.79,-31.91,0,*56
1506358915.5,41930,16.25,74332.5,-2.41,-31.79,-31.85,0,*5B
1506358916.73,41931,16.25,74328.5,-2.41,-32.01,-32.01,0,*59
1506358917.99,41932,16.25,74328.8,-2.41,-31.85,-32.01,0,*55
1506358919.28,41933,16.25,74332.0,-2.41,-31.85,-31.85,0,*5B
1506358920.51,41934,16.25,74332.0,-2.41,-32.01,-32.01,0,*5C
1506358921.75,41935,16.25,74330.8,-2.41,-32.01,-32.01,0,*5D
1506358923.04,41936,16.25,74328.0,-2.41,-31.85,-31.91,0,*5B
1506358924.32,41937,16.25,74332.0,-2.41,-31.91,-31.91,0,*5F
1506358925.56,41938,16.25,74332.8,-2.41,-32.01,-32.01,0,*50
1506358926.8,41939,16.25,74328.0,-2.39,-31.79,-31.85,0,*5D
1506358928.06,41940,16.25,74330.5,-2.39,-31.85,-31.91,0,*55
1506358929.35,41941,16.25,74330.5,-2.41,-31.85,-31.91,0,*5B
1506358930.61,41942,16.25,74334.8,-2.41,-31.91,-32.01,0,*57
1506358931.86,41943,16.25,74332.3,-2.41,-31.91,-32.01,0,*56
1506358933.1,41944,16.25,74330.0,-2.41,-32.01,-32.01,0,*5B
1506358934.34,41945,16.25,74332.3,-2.39,-31.91,-32.01,0,*5F
1506358935.58,41946,16.25,74330.0,-2.39,-31.85,-32.01,0,*59
1506358936.83,41947,16.25,74334.0,-2.39,-32.01,-32.07,0,*51
1506358938.04,41948,16.25,74334.8,-2.39,-31.79,-32.01,0,*54
1506358939.33,41949,16.25,74334.8,-2.41,-31.91,-32.07,0,*5A
1506358940.62,41950,16.25,74332.3,-2.41,-31.85,-32.07,0,*57
1506358941.9,41951,16.25,74332.5,-2.41,-31.91,-32.07,0,*53
1506358943.19,41952,16.25,74332.3,-2.41,-31.91,-32.07,0,*50
1506358944.45,41953,16.25,74330.8,-2.41,-31.91,-32.01,0,*57
1506358945.66,41954,16.25,74334.5,-2.39,-32.01,-32.01,0,*55
1506358946.9,41955,16.25,74328.0,-2.39,-31.91,-32.01,0,*5E
1506358948.14,41956,16.25,74332.5,-2.39,-31.85,-32.01,0,*58
1506358949.4,41957,16.25,74328.0,-2.41,-31.79,-31.91,0,*5F
1506358950.66,41958,16.25,74328.8,-2.41,-31.79,-31.91,0,*50
1506358951.95,41959,16.25,74330.5,-2.41,-31.85,-31.91,0,*52
1506358953.19,41960,16.25,74332.8,-2.39,-31.79,-31.85,0,*51
1506358954.45,41961,16.25,74334.8,-2.39,-31.85,-31.91,0,*56
1506358955.69,41962,16.25,74330.8,-2.39,-31.91,-32.01,0,*5A
1506358956.93,41963,16.25,74330.3,-2.39,-31.85,-32.01,0,*5E
1506358958.2,41964,16.25,74332.5,-2.39,-31.91,-32.07,0,*5A
1506358959.43,41965,16.25,74328.5,-2.39,-31.91,-32.01,0,*5D
1506358960.67,41966,16.25,74328.0,-2.39,-31.85,-32.01,0,*5B
1506358961.91,41967,16.25,74332.0,-2.39,-31.91,-32.01,0,*5F
1506358963.13,41968,16.25,74328.3,-2.39,-31.79,-32.01,0,*56
1506358964.39,41969,16.25,74330.0,-2.39,-31.85,-31.91,0,*5E
1506358965.64,41970,16.25,74328.8,-2.39,-32.01,-32.07,0,*55
1506358966.88,41971,16.25,74332.8,-2.39,-31.91,-32.01,0,*58
1506358968.12,41972,16.25,74330.5,-2.39,-32.01,-32.07,0,*57
1506358969.36,41973,16.25,74330.0,-2.39,-31.91,-32.01,0,*5A
1506358970.6,41974,16.25,74330.3,-2.39,-31.85,-32.01,0,*58
1506358971.83,41975,16.25,74332.3,-2.41,-31.79,-32.01,0,*55
1506358973.1,41976,16.25,74328.0,-2.39,-31.85,-31.91,0,*50
1506358974.36,41977,16.25,74330.3,-2.41,-31.91,-32.01,0,*51
1506358975.65,41978,16.25,74332.5,-2.37,-31.85,-31.95,0,*54
1506358976.92,41979,16.25,74328.5,-2.39,-31.91,-32.07,0,*56
1506358978.16,41980,16.25,74332.0,-2.39,-31.85,-32.01,0,*53
1506358979.39,41981,16.25,74328.5,-2.39,-31.91,-32.01,0,*57
1506358980.63,41982,16.25,74330.8,-2.39,-31.91,-32.01,0,*54
1506358981.87,41983,16.25,74328.5,-2.39,-31.67,-31.85,0,*53
1506358983.11,41984,16.25,74332.5,-2.39,-31.79,-31.91,0,*5E
1506358984.34,41985,16.25,74334.3,-2.39,-31.67,-31.85,0,*55
1506358985.58,41986,16.25,74332.5,-2.39,-31.85,-32.01,0,*55
1506358986.82,41987,16.25,74330.0,-2.39,-31.79,-31.91,0,*5D
1506358988.06,41988,16.25,74330.3,-2.39,-31.79,-31.91,0,*52
1506358989.33,41989,16.25,74330.8,-2.39,-31.85,-31.91,0,*50
1506358990.59,41990,16.25,74330.0,-2.37,-31.85,-32.01,0,*5C
1506358991.86,41991,16.25,74334.3,-2.39,-31.91,-32.07,0,*50
1506358993.12,41992,16.25,74328.8,-2.39,-31.85,-31.91,0,*5A
1506358994.37,41993,16.25,74330.8,-2.39,-31.85,-32.01,0,*51
1506358995.63,41994,16.25,74332.8,-2.39,-31.85,-31.91,0,*5C
1506358996.92,41995,16.25,74328.0,-2.41,-31.85,-31.91,0,*52
1506358998.16,41996,16.25,74332.5,-2.39,-31.79,-31.91,0,*5D
1506358999.38,41997,16.25,74332.0,-2.39,-32.01,-32.01,0,*5A
1506359000.61,41998,16.25,74332.8,-2.39,-31.91,-32.01,0,*5F
1506359001.88,41999,16.25,74328.0,-2.39,-31.85,-32.07,0,*5D
1506359003.15,42000,16.25,74336.0,-2.37,-31.95,-32.01,0,*5E
1506359004.41,42001,16.25,74334.3,-2.37,-31.95,-32.01,0,*5F
1506359005.67,42002,16.25,74330.0,-2.37,-31.85,-32.01,0,*5D
1506359006.94,42003,16.25,74332.0,-2.35,-31.91,-31.95,0,*55
1506359008.2,42004,16.25,74330.8,-2.37,-32.13,-32.19,0,*5E
1506359009.47,42005,16.25,74332.0,-2.37,-31.95,-32.13,0,*58
1506359010.76,42006,16.25,74332.0,-2.37,-31.85,-31.95,0,*57
1506359012.01,42007,16.25,74332.5,-2.39,-32.01,-32.07,0,*5F
1506359013.22,42008,16.25,74332.5,-2.39,-32.01,-32.01,0,*56
1506359014.47,42009,16.25,74328.8,-2.39,-32.01,-32.07,0,*51
1506359015.74,42010,16.25,74332.0,-2.39,-32.07,-32.07,0,*5F
1506359016.99,42011,16.25,74334.0,-2.39,-32.01,-32.07,0,*58
1506359018.23,42012,16.25,74330.5,-2.39,-32.01,-32.19,0,*54
1506359019.48,42013,16.25,74330.3,-2.39,-32.01,-32.19,0,*55
1506359020.72,42014,16.25,74332.0,-2.37,-32.01,-32.01,0,*55
1506359021.99,42015,16.25,74332.3,-2.37,-31.79,-31.95,0,*56
1506359023.23,42016,16.25,74330.5,-2.37,-32.01,-32.13,0,*54
1506359024.46,42017,16.25,74328.5,-2.37,-32.01,-32.13,0,*55
1506359025.73,42018,16.25,74328.8,-2.37,-32.13,-32.19,0,*53
1506359026.99,42019,16.19,74326.8,-2.37,-31.95,-32.13,0,*55
1506359028.26,42020,16.25,74334.5,-2.37,-32.01,-32.19,0,*5B
1506359029.53,42021,16.25,74334.8,-2.37,-31.95,-32.01,0,*5D
1506359030.76,42022,16.25,74334.0,-2.39,-31.91,-32.01,0,*54
1506359032.01,42023,16.25,74332.0,-2.39,-32.01,-32.07,0,*59
1506359033.26,42024,16.25,74332.5,-2.39,-32.01,-32.07,0,*5E
1506359034.53,42025,16.25,74332.3,-2.39,-32.19,-32.07,0,*56
1506359035.76,42026,16.25,74330.3,-2.39,-32.23,-32.19,0,*53
1506359037.03,42027,16.25,74330.5,-2.39,-32.07,-32.19,0,*54
1506359038.27,42028,16.25,74332.5,-2.39,-32.19,-32.23,0,*5D
1506359039.51,42029,16.25,74330.5,-2.37,-32.01,-32.13,0,*58
1506359040.78,42030,16.25,74334.0,-2.39,-32.07,-32.19,0,*52
1506359042.02,42031,16.25,74332.0,-2.39,-32.19,-32.23,0,*55
1506359043.29,42032,16.25,74332.3,-2.39,-32.07,-32.19,0,*50
1506359044.54,42033,16.19,74328.8,-2.39,-32.01,-32.19,0,*57
1506359045.81,42034,16.25,74332.0,-2.39,-32.19,-32.19,0,*59
1506359047.05,42035,16.25,74334.3,-2.39,-32.07,-32.23,0,*5E
1506359048.31,42036,16.25,74332.0,-2.41,-32.19,-32.23,0,*5D
1506359049.55,42037,16.25,74332.5,-2.39,-32.07,-32.23,0,*5C
1506359050.82,42038,16.25,74330.0,-2.39,-32.19,-32.19,0,*55
1506359052.06,42039,16.25,74334.8,-2.39,-32.01,-32.07,0,*52
1506359053.33,42040,16.25,74328.3,-2.39,-32.07,-32.07,0,*5A
1506359054.61,42041,16.25,74334.5,-2.39,-32.07,-32.19,0,*54
1506359055.87,42042,16.25,74334.8,-2.39,-32.19,-32.07,0,*57
1506359057.14,42043,16.25,74332.3,-2.39,-32.07,-32.19,0,*56
1506359058.41,42044,16.25,74332.3,-2.37,-32.13,-32.19,0,*5A
1506359059.66,42045,16.25,74330.5,-2.37,-32.29,-32.35,0,*5C
1506359060.91,42046,16.25,74330.5,-2.39,-32.07,-32.23,0,*5A
1506359062.17,42047,16.25,74328.5,-2.39,-31.91,-32.19,0,*5E
1506359063.41,42048,16.25,74332.3,-2.39,-32.19,-32.23,0,*5B
1506359064.65,42049,16.25,74332.0,-2.39,-32.19,-32.23,0,*5A
1506359065.89,42050,16.25,74334.0,-2.39,-32.07,-32.23,0,*5D
1506359067.13,42051,16.25,74334.5,-2.39,-32.19,-32.23,0,*53
1506359068.34,42052,16.25,74330.5,-2.39,-32.23,-32.39,0,*52
1506359069.58,42053,16.25,74330.8,-2.41,-32.23,-32.39,0,*5C
1506359070.81,42054,16.25,74328.8,-2.41,-32.23,-32.35,0,*57
1506359072.05,42055,16.19,74330.8,-2.39,-32.19,-32.39,0,*5C
1506359073.26,42056,16.25,74330.3,-2.39,-32.23,-32.23,0,*5D
1506359074.5,42057,16.25,74334.8,-2.39,-32.19,-32.23,0,*55
1506359075.74,42058,16.25,74330.8,-2.39,-32.19,-32.23,0,*5A
1506359076.98,42059,16.25,74330.8,-2.39,-32.19,-32.35,0,*5C
1506359078.18,42060,16.25,74332.0,-2.39,-32.23,-32.35,0,*5F
1506359079.42,42061,16.25,74334.0,-2.39,-32.19,-32.35,0,*57
1506359080.63,42062,16.25,74330.8,-2.39,-32.23,-32.35,0,*5D
1506359081.88,42063,16.25,74334.8,-2.39,-32.01,-32.19,0,*52
1506359083.12,42064,16.25,74334.3,-2.39,-31.91,-32.01,0,*56
1506359084.41,42065,16.25,74330.0,-2.41,-32.07,-32.07,0,*52
1506359085.64,42066,16.25,74330.8,-2.41,-32.23,-32.23,0,*51
1506359086.9,42067,16.25,74328.5,-2.41,-32.01,-32.19,0,*59
1506359088.15,42068,16.25,74332.0,-2.39,-32.01,-32.07,0,*56
1506359089.37,42069,16.19,74330.8,-2.39,-32.01,-32.23,0,*51
1506359090.63,42070,16.19,74328.5,-2.41,-32.19,-32.23,0,*5F
1506359091.86,42071,16.25,74332.5,-2.41,-32.23,-32.23,0,*57
1506359093.1,42072,16.25,74330.0,-2.39,-32.07,-32.23,0,*5D
1506359094.36,42073,16.25,74328.8,-2.41,-31.91,-32.01,0,*5F
1506359095.6,42074,16.25,74328.0,-2.39,-32.01,-32.19,0,*54
1506359096.87,42075,16.25,74332.3,-2.37,-31.95,-32.13,0,*5F
1506359098.08,42076,16.25,74330.5,-2.39,-32.01,-32.01,0,*5F
1506359099.33,42077,16.19,74328.3,-2.39,-32.01,-32.19,0,*57
1506359100.57,42078,16.19,74330.5,-2.39,-32.19,-32.23,0,*58
1506359101.81,42079,16.19,74328.5,-2.39,-32.07,-32.23,0,*56
1506359103.05,42080,16.25,74332.3,-2.39,-32.19,-32.23,0,*5F
1506359104.26,42081,16.25,74328.3,-2.39,-32.35,-32.39,0,*5B
1506359105.49,42082,16.19,74328.3,-2.41,-32.35,-32.51,0,*59
1506359106.78,42083,16.25,74334.3,-2.41,-32.19,-32.19,0,*5A
1506359108.03,42084,16.25,74332.5,-2.39,-32.01,-32.19,0,*5B
1506359109.27,42085,16.25,74334.5,-2.39,-32.01,-32.07,0,*55
1506359110.52,42086,16.19,74330.3,-2.39,-32.01,-32.07,0,*56
1506359111.79,42087,16.19,74328.8,-2.39,-32.19,-32.19,0,*51
1506359113.03,42088,16.25,74334.0,-2.37,-32.01,-32.13,0,*53
1506359114.29,42089,16.25,74332.5,-2.37,-32.13,-32.19,0,*5B
1506359115.53,42090,16.25,74334.5,-2.39,-32.19,-32.23,0,*5E
1506359116.77,42091,16.25,74330.5,-2.39,-32.07,-32.23,0,*50
1506359118.04,42092,16.25,74330.8,-2.39,-32.07,-32.19,0,*5A
1506359119.31,42093,16.19,74330.8,-2.39,-32.07,-32.19,0,*5B
1506359120.58,42094,16.25,74334.3,-2.37,-31.95,-32.13,0,*50
1506359121.82,42095,16.25,74332.3,-2.39,-32.01,-32.07,0,*54
1506359123.06,42096,16.25,74330.5,-2.37,-32.01,-32.13,0,*5C
1506359124.3,42097,16.25,74332.8,-2.39,-32.19,-32.23,0,*59
1506359125.57,42098,16.25,74330.0,-2.37,-32.01,-32.19,0,*58
1506359126.81,42099,16.25,74330.8,-2.39,-31.91,-32.01,0,*54
1506359128.06,42100,16.25,74330.5,-2.39,-32.01,-32.07,0,*59
1506359129.27,42101,16.25,74330.8,-2.39,-32.01,-32.01,0,*5E
1506359130.5,42102,16.19,74328.5,-2.41,-32.23,-32.35,0,*55
1506359131.77,42103,16.25,74330.5,-2.39,-32.19,-32.19,0,*5C
1506359133.01,42104,16.25,74330.0,-2.39,-32.19,-32.23,0,*52
1506359134.25,42105,16.25,74330.0,-2.37,-32.01,-32.01,0,*54
1506359135.52,42106,16.25,74332.5,-2.41,-32.01,-32.07,0,*50
1506359136.75,42107,16.25,74330.0,-2.39,-32.19,-32.23,0,*51
1506359138.0,42108,16.25,74330.3,-2.39,-32.01,-32.19,0,*5E
1506359139.24,42109,16.25,74334.8,-2.41,-32.01,-32.01,0,*59
1506359140.51,42110,16.25,74330.5,-2.39,-32.19,-32.19,0,*5E
1506359141.77,42111,16.25,74328.8,-2.39,-32.19,-32.19,0,*5F
1506359143.04,42112,16.25,74330.3,-2.39,-32.07,-32.07,0,*5C
1506359144.29,42113,16.25,74328.3,-2.39,-32.01,-32.07,0,*5B
1506359145.53,42114,16.19,74330.5,-2.37,-32.01,-32.13,0,*57
1506359146.77,42115,16.25,74332.8,-2.37,-32.01,-32.13,0,*56
1506359148.01,42116,16.19,74330.8,-2.37,-32.01,-32.01,0,*56
1506359149.28,42117,16.19,74330.0,-2.39,-32.07,-32.19,0,*56
1506359150.55,42118,16.25,74330.3,-2.39,-31.91,-32.07,0,*5A
1506359151.81,42119,16.25,74330.8,-2.39,-31.91,-32.07,0,*5B
1506359153.09,42120,16.25,74330.3,-2.39,-32.07,-32.19,0,*52
1506359154.33,42121,16.25,74328.5,-2.39,-32.19,-32.23,0,*55
1506359155.56,42122,16.19,74328.5,-2.37,-32.01,-32.13,0,*52
1506359156.83,42123,16.25,74334.0,-2.37,-32.01,-32.19,0,*59
1506359158.09,42124,16.25,74330.0,-2.37,-32.13,-32.29,0,*5E
1506359159.36,42125,16.25,74332.5,-2.37,-31.95,-32.13,0,*5B
1506359160.62,42126,16.25,74330.8,-2.41,-32.01,-32.07,0,*52
1506359161.84,42127,16.25,74334.0,-2.39,-32.01,-32.01,0,*5A
1506359163.1,42128,16.19,74330.3,-2.41,-32.19,-32.23,0,*53
1506359164.39,42129,16.25,74332.3,-2.37,-31.85,-31.95,0,*5B
1506359165.64,42130,16.19,74330.3,-2.39,-32.01,-32.07,0,*5A
1506359166.9,42131,16.19,74330.0,-2.37,-31.95,-32.13,0,*5E
1506359168.14,42132,16.25,74330.3,-2.37,-32.13,-32.13,0,*50
1506359169.41,42133,16.19,74330.8,-2.39,-32.07,-32.07,0,*5F
1506359170.65,42134,16.19,74328.5,-2.37,-32.01,-32.13,0,*55
1506359171.89,42135,16.25,74332.5,-2.37,-32.01,-32.01,0,*57
1506359173.13,42136,16.19,74328.5,-2.37,-32.01,-32.01,0,*54
1506359174.37,42137,16.19,74330.8,-2.39,-32.01,-32.19,0,*52
1506359175.62,42138,16.25,74332.5,-2.39,-32.19,-32.39,0,*56
1506359176.85,42139,16.19,74332.0,-2.37,-32.13,-32.13,0,*5B
1506359178.1,42140,16.19,74328.0,-2.39,-32.01,-32.19,0,*52
1506359179.34,42141,16.19,74328.3,-2.37,-32.01,-32.13,0,*57
1506359180.58,42142,16.19,74330.3,-2.37,-32.01,-32.13,0,*54
1506359181.82,42143,16.19,74332.3,-2.37,-32.01,-32.01,0,*56
1506359183.08,42144,16.25,74332.0,-2.37,-31.95,-32.01,0,*5F
1506359184.34,42145,16.19,74326.8,-2.37,-31.95,-32.01,0,*5E
1506359185.61,42146,16.19,74328.0,-2.37,-32.01,-32.19,0,*5A
1506359186.87,42147,16.19,74330.0,-2.37,-32.29,-32.35,0,*5F
1506359188.11,42148,16.19,74328.0,-2.39,-32.19,-32.23,0,*5A
1506359189.33,42149,16.19,74330.0,-2.39,-32.01,-32.01,0,*52
1506359190.56,42150,16.19,74330.3,-2.39,-31.91,-32.01,0,*50
1506359191.8,42151,16.25,74330.8,-2.37,-32.01,-32.13,0,*56
1506359193.04,42152,16.19,74328.5,-2.37,-32.13,-32.13,0,*56
1506359194.32,42153,16.25,74334.5,-2.37,-32.29,-32.29,0,*57
1506359195.6,42154,16.19,74330.0,-2.37,-32.19,-32.29,0,*53
1506359196.84,42155,16.25,74330.8,-2.37,-32.01,-32.01,0,*51
1506359198.1,42156,16.19,74328.8,-2.37,-31.85,-32.01,0,*5D
1506359199.34,42157,16.19,74328.5,-2.37,-32.01,-32.13,0,*50
1506359200.61,42158,16.19,74328.0,-2.35,-32.07,-32.07,0,*5E
1506359201.88,42159,16.19,74328.3,-2.37,-32.13,-32.19,0,*57
1506359203.11,42160,16.19,74328.3,-2.39,-32.19,-32.23,0,*50
1506359204.38,42161,16.19,74328.3,-2.39,-32.07,-32.19,0,*57
1506359205.65,42162,16.19,74328.8,-2.37,-32.01,-32.19,0,*5C
1506359206.86,42163,16.19,74326.3,-2.39,-32.23,-32.23,0,*5A
1506359208.07,42164,16.19,74328.0,-2.39,-32.23,-32.35,0,*5A
1506359209.34,42165,16.19,74334.0,-2.39,-32.07,-32.19,0,*53
1506359210.58,42166,16.19,74328.3,-2.37,-32.13,-32.13,0,*51
1506359211.81,42167,16.25,74334.8,-2.37,-32.13,-32.01,0,*53
1506359213.05,42168,16.19,74328.8,-2.37,-32.01,-32.13,0,*5C
1506359214.29,42169,16.19,74328.3,-2.39,-32.19,-32.35,0,*5E
1506359215.53,42170,16.19,74330.5,-2.39,-32.19,-32.35,0,*56
1506359216.8,42171,16.19,74332.0,-2.39,-32.07,-32.19,0,*56
1506359218.01,42172,16.19,74328.3,-2.39,-32.23,-32.35,0,*5D
1506359219.28,42173,16.25,74336.0,-2.39,-32.19,-32.19,0,*5B
1506359220.49,42174,16.25,74332.0,-2.39,-32.39,-32.39,0,*5C
1506359221.73,42175,16.19,74328.3,-2.41,-32.39,-32.39,0,*52
1506359222.94,42176,16.19,74332.0,-2.39,-32.23,-32.39,0,*55
1506359224.17,42177,16.25,74332.8,-2.41,-32.23,-32.35,0,*57
1506359225.46,42178,16.19,74328.3,-2.41,-31.91,-32.07,0,*53
1506359226.71,42179,16.19,74332.5,-2.39,-32.01,-32.19,0,*58
1506359227.97,42180,16.19,74332.8,-2.39,-32.19,-32.19,0,*57
1506359229.24,42181,16.19,74332.8,-2.39,-32.07,-32.19,0,*59
1506359230.51,42182,16.19,74330.3,-2.37,-32.13,-32.19,0,*51
1506359231.78,42183,16.19,74330.3,-2.37,-32.01,-32.19,0,*53
1506359233.05,42184,16.19,74328.0,-2.37,-32.01,-32.19,0,*54
1506359234.31,42185,16.19,74330.8,-2.37,-32.13,-32.29,0,*55
1506359235.6,42186,16.19,74330.8,-2.37,-32.19,-32.19,0,*5F
1506359236.86,42187,16.19,74330.5,-2.37,-32.19,-32.35,0,*50
1506359238.1,42188,16.19,74332.5,-2.39,-32.23,-32.19,0,*56
1506359239.34,42189,16.19,74332.5,-2.37,-32.01,-32.13,0,*53
1506359240.58,42190,16.19,74332.8,-2.37,-32.01,-32.13,0,*5B
1506359241.79,42191,16.19,74330.5,-2.39,-32.01,-32.01,0,*57
1506359243.06,42192,16.19,74332.5,-2.37,-32.13,-32.19,0,*50
1506359244.27,42193,16.19,74328.5,-2.39,-32.35,-32.39,0,*59
1506359245.48,42194,16.19,74332.3,-2.39,-32.23,-32.35,0,*55
1506359246.69,42195,16.19,74328.0,-2.39,-32.23,-32.39,0,*58
1506359247.9,42196,16.19,74334.0,-2.39,-32.35,-32.23,0,*57
1506359249.11,42197,16.19,74328.3,-2.39,-32.23,-32.39,0,*5A
1506359250.35,42198,16.19,74332.0,-2.39,-32.19,-32.39,0,*5C
1506359251.58,42199,16.19,74334.3,-2.41,-32.35,-32.39,0,*5C
1506359252.79,42200,16.19,74332.0,-2.39,-32.23,-32.23,0,*5C
1506359254.05,42201,16.19,74332.8,-2.41,-32.19,-32.23,0,*5B
1506359255.26,42202,16.19,74336.0,-2.39,-32.23,-32.39,0,*55
1506359256.47,42203,16.19,74332.8,-2.39,-32.35,-32.35,0,*5F
1506359257.68,42204,16.19,74332.3,-2.39,-32.23,-32.35,0,*5F
1506359258.91,42205,16.19,74334.3,-2.41,-32.23,-32.35,0,*51
1506359260.14,42206,16.19,74334.3,-2.41,-32.23,-32.23,0,*55
1506359261.4,42207,16.19,74334.3,-2.41,-32.23,-32.19,0,*5D
1506359262.69,42208,16.19,74332.5,-2.41,-32.07,-32.19,0,*54
1506359263.96,42209,16.19,74334.3,-2.39,-32.07,-32.19,0,*5A
1506359265.2,42210,16.19,74330.3,-2.39,-32.19,-32.23,0,*54
1506359266.43,42211,16.19,74334.0,-2.41,-32.23,-32.39,0,*58
1506359267.66,42212,16.19,74330.8,-2.41,-32.39,-32.57,0,*58
1506359268.86,42213,16.19,74332.3,-2.39,-32.35,-32.35,0,*5E
1506359270.1,42214,16.19,74334.0,-2.41,-32.35,-32.39,0,*5A
1506359271.32,42215,16.19,74332.3,-2.41,-32.23,-32.23,0,*57
1506359272.55,42216,16.19,74332.5,-2.41,-32.23,-32.23,0,*54
1506359273.82,42217,16.19,74332.0,-2.39,-32.07,-32.19,0,*55
1506359275.06,42218,16.19,74330.3,-2.39,-32.19,-32.23,0,*5C
1506359276.29,42219,16.19,74332.8,-2.41,-32.35,-32.35,0,*5B
1506359277.52,42220,16.19,74334.0,-2.41,-32.35,-32.39,0,*5D
1506359278.78,42221,16.19,74328.3,-2.41,-32.19,-32.35,0,*5E
1506359279.99,42222,16.19,74334.3,-2.39,-32.35,-32.35,0,*5C
1506359281.22,42223,16.19,74332.8,-2.41,-32.35,-32.39,0,*5E
1506359282.44,42224,16.19,74332.3,-2.41,-32.35,-32.39,0,*59
1506359283.66,42225,16.19,74332.0,-2.39,-32.23,-32.39,0,*50
1506359284.92,42226,16.19,74330.5,-2.41,-32.19,-32.23,0,*5E
1506359286.15,42227,16.19,74332.3,-2.41,-32.23,-32.39,0,*5D
1506359287.38,42228,16.19,74328.3,-2.41,-32.35,-32.35,0,*59
1506359288.61,42229,16.19,74330.8,-2.41,-32.23,-32.35,0,*5F
1506359289.84,42230,16.19,74330.8,-2.41,-32.23,-32.35,0,*57
1506359291.07,42231,16.19,74330.8,-2.43,-32.29,-32.39,0,*52
1506359292.3,42232,16.19,74332.8,-2.43,-32.23,-32.29,0,*5A
1506359293.53,42233,16.19,74336.3,-2.43,-32.23,-32.29,0,*5B
1506359294.73,42234,16.19,74332.8,-2.43,-32.23,-32.23,0,*56
1506359295.94,42235,16.19,74332.5,-2.43,-32.13,-32.23,0,*54
1506359297.15,42236,16.19,74332.0,-2.43,-32.13,-32.23,0,*57
1506359298.38,42237,16.19,74332.3,-2.41,-32.23,-32.35,0,*50
1506359299.59,42238,16.19,74332.5,-2.43,-32.39,-32.39,0,*5A